Overview Statistics Trail Chart Weather Telemetry Raw packets
 

This is the latest recevied weather packets stored in our database for station/object KB0BS-13. If no packets are shown the sender has not sent any weather packets the latest 10 day(s).

<< 54 55 56 57 58 59 60 >>
Time Temp. Humidity Pressure Rain* Wind** Luminosity Snow
1777341286 12.78° C 66% 1006.8 hPa 0 mm - 0 W/m² -
1777340982 12.78° C 68% 1007.2 hPa 0 mm - 0 W/m² -
1777340681 12.78° C 66% 1007.1 hPa 0 mm - 0 W/m² -
1777340383 12.22° C 73% 1007.1 hPa 0 mm - 0 W/m² -
1777340075 12.22° C 71% 1007.2 hPa 0 mm - 0 W/m² -
1777339772 12.22° C 69% 1007.5 hPa 0 mm - 0 W/m² -
1777339470 12.22° C 72% 1007.6 hPa 0 mm - 0 W/m² -
1777339167 12.22° C 71% 1007.5 hPa 0 mm - 0 W/m² -
1777338866 12.78° C 70% 1007.6 hPa 0 mm - 0 W/m² -
1777338562 12.78° C 70% 1007.6 hPa 0 mm - 0 W/m² -
1777338260 12.78° C 65% 1007.5 hPa 0 mm - 0 W/m² -
1777337955 12.78° C 68% 1007.9 hPa 0 mm - 0 W/m² -
1777337652 13.89° C 62% 1008 hPa 0 mm - 0 W/m² -
1777337349 13.89° C 62% 1008.2 hPa 0 mm - 0 W/m² -
1777337047 13.89° C 62% 1008.6 hPa 0 mm - 0 W/m² -
1777336744 13.89° C 61% 1008.3 hPa 0 mm - 1 W/m² -
1777336443 14.44° C 57% 1007.9 hPa 0 mm - 2 W/m² -
1777336140 14.44° C 57% 1007.9 hPa 0 mm - 2 W/m² -
1777335836 14.44° C 57% 1007.9 hPa 0 mm - 2 W/m² -
1777335534 14.44° C 58% 1008.2 hPa 0 mm - 5 W/m² -
1777334905 14.44° C 59% 1009.1 hPa 0 mm - 18 W/m² -
1777334602 14.44° C 59% 1009.1 hPa 0 mm - 18 W/m² -
1777334299 14.44° C 59% 1009.1 hPa 0 mm - 18 W/m² -
1777333994 14.44° C 59% 1009.7 hPa 0 mm - 38 W/m² -
1777333691 14.44° C 59% 1009.7 hPa 0 mm - 38 W/m² -

* Rain latest hour (hover to see other rain measurements)
** Current wind speed in m/s (hover to see current wind gust speed)